Content
SEND FEEDBACK

Daily
Averages
Monthly
Summary
United States of America

SPRINGVALE, MAINE


Home > North America > United States > Maine
Elevation: 351 feet     Latitude: 43 28N     Longitude: 070 47W

WEATHER
 
SELECT A DAY
Number of Records: 467,330;   Date Range: 1/1/95 - 11/21/14
 
SHARE

PRINT THIS DATA

[ ← Previous Day ]
WEATHER ALMANAC - JANUARY 31, 2013
[ Next Day → ]
[ °C ]   °F
Weather ElementAverageHighLow
Temperature45 °F57.2 °F (5:35 am)28.4 °F (11:55 pm)
Dewpoint31 °F53.6 °F (5:35 am)3.2 °F (10:55 pm)
Humidity61.9 %94 % (1:35 am)32 % (7:36 pm)
Barometer29.19 in29.46 in (11:35 pm)28.87 in (9:35 am)
Wind Speed18.2 mph28.8 mph (9:55 am)
Wind Gust47.2 mph (1:55 pm)
Weather ElementAverage
Visibility8.4 mi
Wind DirectionSW (225.8 °)

Weather ElementTotal
Precipitation0.56 in
Heating Degree Days22.2 (Base 65)
Averaged from 66 records on January 31, 2013
WEATHER CONDITIONS BREAKOUT
WIND DIRECTION BREAKOUT
WEATHER BY HOUR - JANUARY 31, 2013
[ °C ]   °F
Local TimeTemperatureDewpointHumidityBarometerVisibilityWind DirectionWind SpeedGust SpeedPrecipitationEventsConditions
12:35 AM55.4 °F51.8 °F88 %29.40 in9.0 miSouth (190°)9.2 mph16.1 mph0.01 inOvercast
12:55 AM55.4 °F51.8 °F88 %29.38 in3.0 miSouth (180°)9.2 mph0.01 inOvercast
1:15 AM55.4 °F51.8 °F88 %29.36 in10.0 miSouth (180°)9.2 mph25.3 mphOvercast
1:35 AM53.6 °F51.8 °F94 %29.33 in7.0 miSouth (170°)10.4 mph18.4 mphOvercast
1:55 AM53.6 °F51.8 °F94 %29.32 in5.0 miSSE (160°)11.5 mph17.3 mphOvercast
2:15 AM53.6 °F50.0 °F88 %29.30 in3.0 miSouth (170°)8.1 mph16.1 mphOvercast
2:35 AM53.6 °F51.8 °F94 %29.27 in4.0 miSouth (180°)9.2 mph19.6 mphOvercast
2:55 AM53.6 °F51.8 °F94 %29.25 in5.0 miSouth (190°)11.5 mph25.3 mph0.02 inOvercast
3:15 AM55.4 °F51.8 °F88 %29.22 in3.0 miSouth (180°)12.7 mph23.0 mphOvercast
3:35 AM55.4 °F51.8 °F88 %29.19 in4.0 miSouth (180°)12.7 mph24.2 mph0.01 inOvercast
3:55 AM55.4 °F51.8 °F88 %29.16 in4.0 miSouth (180°)12.7 mph24.2 mph0.01 inOvercast
4:15 AM55.4 °F51.8 °F88 %29.14 in4.0 miSouth (180°)11.5 mph19.6 mphOvercast
4:35 AM55.4 °F51.8 °F88 %29.11 in4.0 miSouth (180°)13.8 mph18.4 mph0.01 inOvercast
4:55 AM55.4 °F51.8 °F88 %29.09 in4.0 miSouth (180°)11.5 mph20.7 mph0.02 inOvercast
5:15 AM55.4 °F51.8 °F88 %29.07 in3.0 miSouth (180°)11.5 mph32.2 mph0.01 inOvercast
5:35 AM57.2 °F53.6 °F88 %29.05 in10.0 miSouth (190°)15.0 mph27.6 mph0.01 inOvercast
5:55 AM57.2 °F53.6 °F88 %29.03 in10.0 miSouth (180°)13.8 mph23.0 mph0.03 inOvercast
6:15 AM57.2 °F53.6 °F88 %28.99 in10.0 miSouth (170°)15.0 mph29.9 mph0.02 inOvercast
6:35 AM55.4 °F51.8 °F88 %28.97 in6.0 miSouth (180°)21.9 mph33.4 mph0.04 inOvercast
6:55 AM55.4 °F53.6 °F94 %28.95 in4.0 miSouth (180°)17.3 mph32.2 mph0.05 inOvercast
7:15 AM55.4 °F51.8 °F88 %28.96 in5.0 miSouth (190°)15.0 mph31.1 mph0.04 inOvercast
7:35 AM57.2 °F51.8 °F82 %28.98 in4.0 miSW (220°)20.7 mph29.9 mph0.11 inOvercast
7:55 AM55.4 °F51.8 °F88 %28.96 in10.0 miSouth (180°)8.1 mph18.4 mph0.13 inOvercast
8:35 AM55.4 °F51.8 °F88 %28.92 in10.0 miSouth (170°)8.1 mphOvercast
8:55 AM55.4 °F51.8 °F88 %28.90 in10.0 miSouth (180°)11.5 mph20.7 mphMostly Cloudy
9:15 AM55.4 °F51.8 °F88 %28.89 in10.0 miSouth (180°)13.8 mph23.0 mphMostly Cloudy
9:35 AM55.4 °F50.0 °F82 %28.87 in10.0 miSouth (190°)10.4 mph16.1 mphOvercast
9:55 AM53.6 °F46.4 °F77 %28.90 in6.0 miWest (260°)28.8 mph43.7 mph0.02 inMostly Cloudy
10:15 AM48.2 °F39.2 °F71 %28.94 in10.0 miWest (270°)18.4 mph34.5 mphOvercast
10:35 AM46.4 °F37.4 °F71 %28.97 in10.0 miWest (270°)23.0 mph40.3 mphOvercast
10:55 AM44.6 °F35.6 °F71 %28.96 in8.0 miWest (260°)16.1 mph27.6 mph0.01 inOvercast
11:15 AM44.6 °F39.2 °F81 %28.98 in10.0 miWSW (250°)21.9 mph26.5 mphOvercast
11:55 AM44.6 °F33.8 °F66 %29.02 in10.0 miWest (260°)19.6 mph36.8 mphMostly Cloudy
12:35 PM44.6 °F28.4 °F53 %29.06 in10.0 miWest (260°)25.3 mph32.2 mph
12:55 PM46.4 °F26.6 °F46 %29.07 in10.0 miWSW (240°)23.0 mph39.1 mphOvercast
1:15 PM44.6 °F24.8 °F46 %29.07 in10.0 miWest (260°)25.3 mph34.5 mphScattered Clouds
1:35 PM44.6 °F21.2 °F39 %29.09 in10.0 miWest (280°)24.2 mph38.0 mphClear
1:55 PM42.8 °F19.4 °F39 %29.11 in10.0 miWest (270°)24.2 mph47.2 mphClear
2:15 PM42.8 °F17.6 °F36 %29.13 in10.0 miWest (270°)26.5 mph40.3 mphClear
2:35 PM42.8 °F21.2 °F42 %29.15 in10.0 miWSW (250°)18.4 mph36.8 mphMostly Cloudy
2:55 PM42.8 °F17.6 °F36 %29.17 in10.0 miWest (260°)25.3 mph33.4 mphMostly Cloudy
3:15 PM41.0 °F15.8 °F36 %29.19 in10.0 miWest (260°)27.6 mph35.7 mphMostly Cloudy
3:35 PM39.2 °F17.6 °F42 %29.21 in10.0 miWest (270°)23.0 mph36.8 mphPartly Cloudy
3:55 PM39.2 °F15.8 °F39 %29.23 in10.0 miWSW (250°)26.5 mph33.4 mphMostly Cloudy
4:15 PM37.4 °F14.0 °F38 %29.24 in10.0 miWest (260°)20.7 mph31.1 mphScattered Clouds
4:35 PM37.4 °F12.2 °F36 %29.27 in10.0 miWSW (250°)20.7 mph34.5 mphScattered Clouds
4:55 PM35.6 °F12.2 °F38 %29.29 in10.0 miWSW (250°)25.3 mph33.4 mphMostly Cloudy
5:15 PM35.6 °F10.4 °F35 %29.30 in10.0 miWSW (250°)23.0 mph34.5 mphMostly Cloudy
5:35 PM35.6 °F10.4 °F35 %29.31 in10.0 miWSW (250°)15.0 mph24.2 mphPartly Cloudy
5:55 PM33.8 °F10.4 °F38 %29.32 in10.0 miWest (260°)15.0 mph31.1 mphScattered Clouds
6:15 PM35.6 °F12.2 °F38 %29.33 in10.0 miWSW (250°)16.1 mph34.5 mphPartly Cloudy
6:35 PM33.8 °F12.2 °F41 %29.34 in10.0 miWSW (250°)21.9 mph32.2 mphPartly Cloudy
7:15 PM33.8 °F8.6 °F35 %29.37 in10.0 miWest (260°)25.3 mph42.6 mphScattered Clouds
7:36 PM33.8 °F6.8 °F32 %29.38 in10.0 miWest (270°)20.7 mph33.4 mphPartly Cloudy
7:55 PM32.0 °F8.6 °F38 %29.39 in10.0 miWest (260°)27.6 mph36.8 mphPartly Cloudy
8:15 PM32.0 °F12.2 °F44 %29.40 in10.0 miWest (260°)17.3 mph27.6 mphPartly Cloudy
8:35 PM32.0 °F10.4 °F41 %29.40 in10.0 miWest (260°)21.9 mph31.1 mphScattered Clouds
8:55 PM32.0 °F6.8 °F35 %29.41 in10.0 miWSW (250°)21.9 mph43.7 mphPartly Cloudy
9:15 PM32.0 °F6.8 °F35 %29.42 in10.0 miWSW (250°)24.2 mph36.8 mphClear
9:35 PM30.2 °F6.8 °F37 %29.42 in10.0 miWSW (240°)25.3 mph34.5 mphClear
9:55 PM30.2 °F5.0 °F34 %29.43 in10.0 miWSW (250°)23.0 mph33.4 mphClear
10:15 PM30.2 °F5.0 °F34 %29.44 in10.0 miWSW (250°)23.0 mph33.4 mphClear
10:35 PM30.2 °F6.8 °F37 %29.45 in10.0 miWSW (250°)19.6 mph32.2 mphClear
10:55 PM30.2 °F3.2 °F32 %29.45 in10.0 miWSW (240°)24.2 mph39.1 mphClear
11:35 PM30.2 °F5.0 °F34 %29.46 in10.0 miWSW (250°)18.4 mph29.9 mphClear
11:55 PM28.4 °F3.2 °F34 %29.46 in10.0 miWest (260°)21.9 mph29.9 mphClear
Hourly data recorded from KSFM, located miles away from Springvale, Maine







STORIES FROM OUR PARTNERS